Location: Wien
(48.2082°N, 16.3738°E)
Time: 11:26:39
(UTC+01:00)

ISS - Visible Passes

Search period start: 26 March 2019 00:00
Search period end: 05 April 2019 01:00
Orbit: 408 x 411 km, 51.6° (Epoch: 26 March)

Date Brightness Start Highest point End Pass type
(mag) Time Alt. Az. Time Alt. Az. Time Alt. Az.
26 Mar -3.6 19:27:31 10° WSW 19:30:49 71° NNW 19:33:14 17° ENE visible
26 Mar -1.3 21:04:30 10° WNW 21:06:00 23° WNW 21:06:00 23° WNW visible
27 Mar -3.0 20:13:43 10° W 20:16:55 44° N 20:17:28 40° NNE visible
28 Mar -3.1 19:22:53 10° W 19:26:07 50° N 19:28:52 13° ENE visible
28 Mar -1.7 20:59:48 10° WNW 21:01:37 28° NW 21:01:37 28° NW visible
29 Mar -3.0 20:09:03 10° WNW 20:12:15 45° N 20:12:58 37° NE visible
29 Mar -0.3 21:45:43 10° WNW 21:45:44 10° WNW 21:45:44 10° WNW visible
30 Mar -2.9 19:18:14 10° WNW 19:21:26 43° N 19:24:16 12° ENE visible
30 Mar -2.1 20:54:59 10° WNW 20:57:02 34° WNW 20:57:02 34° WNW visible
31 Mar -3.4 21:04:15 10° WNW 21:07:31 55° NNE 21:08:19 42° ENE visible
31 Mar -0.5 22:40:55 10° WNW 22:41:04 11° WNW 22:41:04 11° WNW visible
01 Apr -3.1 20:13:28 10° WNW 20:16:42 47° N 20:19:35 12° E visible
01 Apr -2.5 21:50:07 10° WNW 21:52:20 38° W 21:52:20 38° W visible
02 Apr -3.9 20:59:20 10° WNW 21:02:40 84° NNE 21:03:36 44° ESE visible
03 Apr -3.5 20:08:34 10° WNW 20:11:51 63° NNE 20:14:53 12° E visible
03 Apr -2.3 21:45:19 10° W 21:47:39 30° WSW 21:47:39 30° WSW visible
04 Apr -3.4 20:54:25 10° WNW 20:57:39 53° SSW 20:58:57 30° SSE visible
